Home   Weather   Syracuse   Past weeks

Flag for USA Past Weather in Syracuse, New York, USA — Yesterday and Last 2 Weeks

Now
60 °F

Broken clouds.


Feels Like: 60 °F
Forecast: 54 / 80 °F
Wind: 3 mph from East

Location: Syracuse Hancock International Airport

Current Time: Aug 17, 2017 at 9:50:04 am

Latest Report: Aug 17, 2017 at 8:54 am


Visibility: 10 mi

Pressure: 30.06 "Hg

Humidity: 80%

Dew Point: 54 °F

Location of SyracuseLocation

Past Weather in Syracuse — Graph

°F

Syracuse Temperature Yesterday

Maximum temperature yesterday: 78 °F (at 1:54 pm)
Minimum temperature yesterday: 55 °F (at 11:54 pm)
Average temperature yesterday: 67 °F

High & Low Weather Summary for the Past Weeks

 TemperatureHumidityPressure
High86 °F (Aug 3, 2:54 pm)100% (Aug 3, 11:54 pm)30.20 "Hg (Aug 3, 11:54 pm)
Low51 °F (Aug 17, 4:54 am)36% (Aug 2, 1:54 pm)29.76 "Hg (Aug 4, 5:54 pm)
Average69 °F75%29.98 "Hg
* Reported Aug 2 7:54 am — Aug 17 7:54 am, Syracuse. Weather by CustomWeather, © 2017

Note: Actual official high and low records may vary slightly from our data, if they occured in-between our weather recording intervals... More about our weather records

Advertising

Syracuse Weather History for the Previous 24 Hours

Scroll right to see more
 ConditionsComfort  
Time TempWeatherWind HumidityBarometerVisibility
7:54 am
Thu, Aug 17
54 °FBroken clouds.5 mph93%30.07 "Hg10 mi
6:54 am51 °FBroken clouds.3 mph96%30.06 "Hg10 mi
5:54 am52 °FPassing clouds.3 mph93%30.06 "Hg10 mi
4:54 am51 °FPassing clouds.6 mph96%30.05 "Hg10 mi
3:54 am53 °FPassing clouds.3 mph93%30.06 "Hg10 mi
2:54 am53 °FPassing clouds.3 mph93%30.06 "Hg10 mi
1:54 am55 °FClear.No wind90%30.07 "Hg10 mi
12:54 am56 °FClear.No wind87%30.06 "Hg10 mi
11:54 pm
Wed, Aug 16
55 °FPassing clouds.3 mph93%30.06 "Hg10 mi
10:54 pm57 °FPassing clouds.No wind87%30.06 "Hg10 mi
9:54 pm59 °FPassing clouds.No wind81%30.06 "Hg10 mi
8:54 pm62 °FPassing clouds.No wind70%30.05 "Hg10 mi
7:54 pm65 °FPassing clouds.5 mph59%30.04 "Hg10 mi
6:54 pm70 °FPassing clouds.8 mph47%30.03 "Hg10 mi
5:54 pm72 °FSunny.12 mph48%30.04 "Hg10 mi
4:54 pm75 °FBroken clouds.13 mph48%30.02 "Hg10 mi
3:54 pm75 °FBroken clouds.12 mph50%30.03 "Hg10 mi
2:54 pm77 °FBroken clouds.14 mph52%30.03 "Hg10 mi
1:54 pm78 °FBroken clouds.12 mph54%30.03 "Hg10 mi
12:54 pm77 °FScattered clouds.8 mph58%30.03 "Hg10 mi
11:54 am74 °FBroken clouds.6 mph67%30.03 "Hg10 mi
10:54 am72 °FBroken clouds.6 mph81%30.03 "Hg10 mi
10:30 am70 °FPartly sunny.7 mph84%30.05 "Hg10 mi
9:54 am67 °FMostly cloudy.7 mph93%30.04 "Hg10 mi
9:02 am67 °FFog.5 mph97%30.03 "Hg5 mi
Weather by CustomWeather, © 2017

See weather overviewHow to use our weather pages